Home   Weather   Libreville   Past weeks

Flag for Gabon Past Weather in Libreville, Gabon — Yesterday and Last 2 Weeks

Now
77 °F

Partly cloudy.


Feels Like: 78 °F
Forecast: 74 / 80 °F
Wind: 7 mph from South

Location: Libreville Airport

Current Time: Jul 22, 2017 at 12:05:42 am

Latest Report: Jul 21, 2017 at 11:00 pm


Visibility: N/A

Pressure: 30.01 "Hg

Humidity: 83%

Dew Point: 72 °F

Location of LibrevilleLocation

Past Weather in Libreville — Graph

°F

Libreville Temperature Yesterday

Maximum temperature yesterday: 79 °F (at 2:00 pm)
Minimum temperature yesterday: 75 °F (at 2:00 am)
Average temperature yesterday: 77 °F

High & Low Weather Summary for the Past Weeks

 TemperatureHumidityPressure
High82 °F (Jul 12, 1:00 pm)94% (Jul 17, 12:00 am)30.09 "Hg (Jul 17, 12:00 am)
Low70 °F (Jul 11, 6:00 am)58% (Jul 12, 1:00 pm)29.89 "Hg (Jul 20, 4:00 pm)
Average77 °F80%29.99 "Hg
* Reported Jul 6 10:00 pm — Jul 21 10:00 pm, Libreville. Weather by CustomWeather, © 2017

Note: Actual official high and low records may vary slightly from our data, if they occured in-between our weather recording intervals... More about our weather records

Advertising

Libreville Weather History for the Previous 24 Hours

Scroll right to see more
 ConditionsComfort  
Time TempWeatherWind HumidityBarometerVisibility
10:00 pm
Fri, Jul 21
77 °FPassing clouds.5 mph83%29.98 "Hg5 mi
9:00 pm77 °FPassing clouds.5 mph83%29.98 "Hg5 mi
8:00 pm77 °FPassing clouds.5 mph83%29.95 "Hg5 mi
7:00 pm77 °FMostly cloudy.5 mph83%29.95 "Hg6 mi
6:00 pm77 °FBroken clouds.6 mph83%29.92 "Hg6 mi
5:00 pm77 °FBroken clouds.7 mph79%29.92 "Hg6 mi
4:00 pm77 °FBroken clouds.7 mph83%29.92 "Hg6 mi
3:00 pm77 °FMore clouds than sun.7 mph83%29.92 "Hg6 mi
2:00 pm79 °FMore clouds than sun.8 mph74%29.92 "Hg6 mi
1:00 pm77 °FPartly sunny.8 mph79%29.95 "Hg6 mi
12:00 pm77 °FPartly sunny.7 mph79%29.98 "Hg6 mi
11:00 am75 °FPartly sunny.12 mph83%30.01 "Hg6 mi
4:00 am75 °FPassing clouds.9 mph89%29.92 "Hg6 mi
3:00 am75 °FPassing clouds.8 mph89%29.92 "Hg6 mi
2:00 am75 °FPassing clouds.8 mph89%29.95 "Hg6 mi
1:00 am77 °FPassing clouds.7 mph79%29.98 "Hg6 mi
12:00 am77 °FPassing clouds.8 mph83%29.98 "Hg6 mi
Weather by CustomWeather, © 2017

See weather overviewHow to use our weather pages